<?xml version="1.0" encoding="UTF-8" standalone="no" ?>
<gpx xmlns="http://www.topografix.com/GPX/1/1" xmlns:xsi="http://www.w3.org/2001/XMLSchema-instance" xsi:schemaLocation="http://www.topografix.com/GPX/1/1 http://www.topografix.com/GPX/1/1/gpx.xsd" version="1.1" creator="VisuGPX - https://www.visugpx.com">
  <metadata>
    <name>2026 Saint Claude à Saint Calais</name>
    <desc><![CDATA[grp_trc:]]></desc>
  </metadata>
  <trk>
    <name><![CDATA[Saint Claude à Saint Calais]]></name>
    <cmt><![CDATA[16:18:41]]></cmt>
    <desc><![CDATA[comment ...]]></desc>
    <trkseg>
      <trkpt lat="47.95763" lon="1.25318">
        <ele>115.1</ele>
        <time>2025-09-18T14:18:41Z</time>
      </trkpt>
      <trkpt lat="47.95775" lon="1.25312">
        <ele>114.2</ele>
        <time>2025-09-18T14:18:41Z</time>
      </trkpt>
      <trkpt lat="47.95789" lon="1.25295">
        <ele>111.7</ele>
        <time>2025-09-18T14:18:41Z</time>
      </trkpt>
      <trkpt lat="47.9579" lon="1.25278">
        <ele>110.5</ele>
        <time>2025-09-18T14:18:41Z</time>
      </trkpt>
      <trkpt lat="47.95809" lon="1.25283">
        <ele>105.7</ele>
        <time>2025-09-18T14:18:41Z</time>
      </trkpt>
      <trkpt lat="47.95821" lon="1.25289">
        <ele>102.3</ele>
        <time>2025-09-18T14:18:41Z</time>
      </trkpt>
      <trkpt lat="47.95859" lon="1.25325">
        <ele>95.7</ele>
        <time>2025-09-18T14:18:41Z</time>
      </trkpt>
      <trkpt lat="47.95868" lon="1.25324">
        <ele>94.9</ele>
        <time>2025-09-18T14:18:41Z</time>
      </trkpt>
      <trkpt lat="47.95873" lon="1.25342">
        <ele>95.3</ele>
        <time>2025-09-18T14:18:41Z</time>
      </trkpt>
      <trkpt lat="47.95898" lon="1.25374">
        <ele>95.7</ele>
        <time>2025-09-18T14:18:41Z</time>
      </trkpt>
      <trkpt lat="47.95893" lon="1.25403">
        <ele>97.1</ele>
        <time>2025-09-18T14:18:41Z</time>
      </trkpt>
      <trkpt lat="47.95883" lon="1.25422">
        <ele>98.9</ele>
        <time>2025-09-18T14:18:41Z</time>
      </trkpt>
      <trkpt lat="47.95806" lon="1.25541">
        <ele>105.9</ele>
        <time>2025-09-18T14:18:41Z</time>
      </trkpt>
      <trkpt lat="47.95794" lon="1.25572">
        <ele>108</ele>
        <time>2025-09-18T14:18:41Z</time>
      </trkpt>
      <trkpt lat="47.9579" lon="1.2559">
        <ele>108</ele>
        <time>2025-09-18T14:18:41Z</time>
      </trkpt>
      <trkpt lat="47.95787" lon="1.25649">
        <ele>108.9</ele>
        <time>2025-09-18T14:18:41Z</time>
      </trkpt>
      <trkpt lat="47.95786" lon="1.25667">
        <ele>110</ele>
        <time>2025-09-18T14:18:41Z</time>
      </trkpt>
      <trkpt lat="47.95786" lon="1.25686">
        <ele>111</ele>
        <time>2025-09-18T14:18:41Z</time>
      </trkpt>
      <trkpt lat="47.95783" lon="1.25715">
        <ele>112.2</ele>
        <time>2025-09-18T14:18:41Z</time>
      </trkpt>
      <trkpt lat="47.95774" lon="1.25736">
        <ele>112.6</ele>
        <time>2025-09-18T14:18:41Z</time>
      </trkpt>
      <trkpt lat="47.95779" lon="1.25754">
        <ele>113.2</ele>
        <time>2025-09-18T14:18:41Z</time>
      </trkpt>
      <trkpt lat="47.95796" lon="1.25813">
        <ele>116.8</ele>
        <time>2025-09-18T14:18:41Z</time>
      </trkpt>
      <trkpt lat="47.95802" lon="1.25847">
        <ele>118.1</ele>
        <time>2025-09-18T14:18:41Z</time>
      </trkpt>
      <trkpt lat="47.958" lon="1.25867">
        <ele>118.4</ele>
        <time>2025-09-18T14:18:41Z</time>
      </trkpt>
      <trkpt lat="47.95797" lon="1.25908">
        <ele>119.5</ele>
        <time>2025-09-18T14:18:41Z</time>
      </trkpt>
      <trkpt lat="47.95794" lon="1.2594">
        <ele>120.1</ele>
        <time>2025-09-18T14:18:41Z</time>
      </trkpt>
      <trkpt lat="47.95794" lon="1.25974">
        <ele>121.6</ele>
        <time>2025-09-18T14:18:41Z</time>
      </trkpt>
      <trkpt lat="47.95802" lon="1.25992">
        <ele>122.6</ele>
        <time>2025-09-18T14:18:41Z</time>
      </trkpt>
      <trkpt lat="47.95814" lon="1.26002">
        <ele>123</ele>
        <time>2025-09-18T14:18:41Z</time>
      </trkpt>
      <trkpt lat="47.95829" lon="1.26022">
        <ele>123.7</ele>
        <time>2025-09-18T14:18:41Z</time>
      </trkpt>
      <trkpt lat="47.95839" lon="1.26041">
        <ele>124.2</ele>
        <time>2025-09-18T14:18:41Z</time>
      </trkpt>
      <trkpt lat="47.95852" lon="1.26061">
        <ele>124.7</ele>
        <time>2025-09-18T14:18:41Z</time>
      </trkpt>
      <trkpt lat="47.95863" lon="1.26079">
        <ele>125.1</ele>
        <time>2025-09-18T14:18:41Z</time>
      </trkpt>
      <trkpt lat="47.95871" lon="1.26098">
        <ele>125.7</ele>
        <time>2025-09-18T14:18:41Z</time>
      </trkpt>
      <trkpt lat="47.95883" lon="1.26112">
        <ele>126</ele>
        <time>2025-09-18T14:18:41Z</time>
      </trkpt>
      <trkpt lat="47.95903" lon="1.26143">
        <ele>127</ele>
        <time>2025-09-18T14:18:41Z</time>
      </trkpt>
      <trkpt lat="47.95906" lon="1.26161">
        <ele>127</ele>
        <time>2025-09-18T14:18:41Z</time>
      </trkpt>
      <trkpt lat="47.96013" lon="1.26454">
        <ele>128</ele>
        <time>2025-09-18T14:18:41Z</time>
      </trkpt>
      <trkpt lat="47.96025" lon="1.26443">
        <ele>128</ele>
        <time>2025-09-18T14:18:41Z</time>
      </trkpt>
      <trkpt lat="47.96062" lon="1.26392">
        <ele>128</ele>
        <time>2025-09-18T14:18:41Z</time>
      </trkpt>
      <trkpt lat="47.96069" lon="1.26373">
        <ele>128</ele>
        <time>2025-09-18T14:18:41Z</time>
      </trkpt>
      <trkpt lat="47.96117" lon="1.2631">
        <ele>128.7</ele>
        <time>2025-09-18T14:18:41Z</time>
      </trkpt>
      <trkpt lat="47.96126" lon="1.26292">
        <ele>128.7</ele>
        <time>2025-09-18T14:18:41Z</time>
      </trkpt>
      <trkpt lat="47.96145" lon="1.26271">
        <ele>128.6</ele>
        <time>2025-09-18T14:18:41Z</time>
      </trkpt>
      <trkpt lat="47.96157" lon="1.26254">
        <ele>128.1</ele>
        <time>2025-09-18T14:18:41Z</time>
      </trkpt>
      <trkpt lat="47.96265" lon="1.2611">
        <ele>127</ele>
        <time>2025-09-18T14:18:41Z</time>
      </trkpt>
      <trkpt lat="47.96282" lon="1.26081">
        <ele>126</ele>
        <time>2025-09-18T14:18:41Z</time>
      </trkpt>
      <trkpt lat="47.96291" lon="1.26063">
        <ele>126</ele>
        <time>2025-09-18T14:18:41Z</time>
      </trkpt>
      <trkpt lat="47.96304" lon="1.26046">
        <ele>125.7</ele>
        <time>2025-09-18T14:18:41Z</time>
      </trkpt>
      <trkpt lat="47.96316" lon="1.26038">
        <ele>125.2</ele>
        <time>2025-09-18T14:18:41Z</time>
      </trkpt>
      <trkpt lat="47.96376" lon="1.2595">
        <ele>123.1</ele>
        <time>2025-09-18T14:18:41Z</time>
      </trkpt>
      <trkpt lat="47.96388" lon="1.25954">
        <ele>123</ele>
        <time>2025-09-18T14:18:41Z</time>
      </trkpt>
      <trkpt lat="47.96523" lon="1.25992">
        <ele>121</ele>
        <time>2025-09-18T14:18:41Z</time>
      </trkpt>
      <trkpt lat="47.96584" lon="1.26022">
        <ele>122.4</ele>
        <time>2025-09-18T14:18:41Z</time>
      </trkpt>
      <trkpt lat="47.96598" lon="1.26026">
        <ele>122.7</ele>
        <time>2025-09-18T14:18:41Z</time>
      </trkpt>
      <trkpt lat="47.9661" lon="1.26036">
        <ele>123</ele>
        <time>2025-09-18T14:18:41Z</time>
      </trkpt>
      <trkpt lat="47.96659" lon="1.2606">
        <ele>122.4</ele>
        <time>2025-09-18T14:18:41Z</time>
      </trkpt>
      <trkpt lat="47.96671" lon="1.26078">
        <ele>122.7</ele>
        <time>2025-09-18T14:18:41Z</time>
      </trkpt>
      <trkpt lat="47.96732" lon="1.2611">
        <ele>121.6</ele>
        <time>2025-09-18T14:18:41Z</time>
      </trkpt>
      <trkpt lat="47.96756" lon="1.26128">
        <ele>121.4</ele>
        <time>2025-09-18T14:18:41Z</time>
      </trkpt>
      <trkpt lat="47.96766" lon="1.26146">
        <ele>122.2</ele>
        <time>2025-09-18T14:18:41Z</time>
      </trkpt>
      <trkpt lat="47.96802" lon="1.26182">
        <ele>122.1</ele>
        <time>2025-09-18T14:18:41Z</time>
      </trkpt>
      <trkpt lat="47.96814" lon="1.26194">
        <ele>121.7</ele>
        <time>2025-09-18T14:18:41Z</time>
      </trkpt>
      <trkpt lat="47.96888" lon="1.26235">
        <ele>118.5</ele>
        <time>2025-09-18T14:18:41Z</time>
      </trkpt>
      <trkpt lat="47.96906" lon="1.26242">
        <ele>116.2</ele>
        <time>2025-09-18T14:18:41Z</time>
      </trkpt>
      <trkpt lat="47.96918" lon="1.26255">
        <ele>115.4</ele>
        <time>2025-09-18T14:18:41Z</time>
      </trkpt>
      <trkpt lat="47.97003" lon="1.26307">
        <ele>107.5</ele>
        <time>2025-09-18T14:18:41Z</time>
      </trkpt>
      <trkpt lat="47.97049" lon="1.26322">
        <ele>102.3</ele>
        <time>2025-09-18T14:18:41Z</time>
      </trkpt>
      <trkpt lat="47.97061" lon="1.26304">
        <ele>100.5</ele>
        <time>2025-09-18T14:18:41Z</time>
      </trkpt>
      <trkpt lat="47.97073" lon="1.26286">
        <ele>98.8</ele>
        <time>2025-09-18T14:18:41Z</time>
      </trkpt>
      <trkpt lat="47.97095" lon="1.26231">
        <ele>96</ele>
        <time>2025-09-18T14:18:41Z</time>
      </trkpt>
      <trkpt lat="47.97035" lon="1.26184">
        <ele>95.4</ele>
        <time>2025-09-18T14:18:41Z</time>
      </trkpt>
      <trkpt lat="47.97103" lon="1.26152">
        <ele>94.5</ele>
        <time>2025-09-18T14:18:41Z</time>
      </trkpt>
      <trkpt lat="47.97141" lon="1.26104">
        <ele>94.7</ele>
        <time>2025-09-18T14:18:41Z</time>
      </trkpt>
      <trkpt lat="47.97195" lon="1.26034">
        <ele>95</ele>
        <time>2025-09-18T14:18:41Z</time>
      </trkpt>
      <trkpt lat="47.97282" lon="1.26014">
        <ele>95</ele>
        <time>2025-09-18T14:18:41Z</time>
      </trkpt>
      <trkpt lat="47.97388" lon="1.25988">
        <ele>95</ele>
        <time>2025-09-18T14:18:41Z</time>
      </trkpt>
      <trkpt lat="47.97496" lon="1.25943">
        <ele>95</ele>
        <time>2025-09-18T14:18:41Z</time>
      </trkpt>
      <trkpt lat="47.97569" lon="1.25903">
        <ele>94.7</ele>
        <time>2025-09-18T14:18:41Z</time>
      </trkpt>
      <trkpt lat="47.97621" lon="1.25862">
        <ele>95</ele>
        <time>2025-09-18T14:18:41Z</time>
      </trkpt>
      <trkpt lat="47.97661" lon="1.25843">
        <ele>95</ele>
        <time>2025-09-18T14:18:41Z</time>
      </trkpt>
      <trkpt lat="47.97704" lon="1.26044">
        <ele>95</ele>
        <time>2025-09-18T14:18:41Z</time>
      </trkpt>
      <trkpt lat="47.97747" lon="1.2619">
        <ele>96</ele>
        <time>2025-09-18T14:18:41Z</time>
      </trkpt>
      <trkpt lat="47.97763" lon="1.26274">
        <ele>96</ele>
        <time>2025-09-18T14:18:41Z</time>
      </trkpt>
      <trkpt lat="47.97751" lon="1.26585">
        <ele>98</ele>
        <time>2025-09-18T14:18:41Z</time>
      </trkpt>
      <trkpt lat="47.97776" lon="1.2672">
        <ele>101</ele>
        <time>2025-09-18T14:18:41Z</time>
      </trkpt>
      <trkpt lat="47.97796" lon="1.26797">
        <ele>104.5</ele>
        <time>2025-09-18T14:18:41Z</time>
      </trkpt>
      <trkpt lat="47.97803" lon="1.26851">
        <ele>107.4</ele>
        <time>2025-09-18T14:18:41Z</time>
      </trkpt>
      <trkpt lat="47.97815" lon="1.26965">
        <ele>110.7</ele>
        <time>2025-09-18T14:18:41Z</time>
      </trkpt>
      <trkpt lat="47.97816" lon="1.27016">
        <ele>112.2</ele>
        <time>2025-09-18T14:18:41Z</time>
      </trkpt>
      <trkpt lat="47.97823" lon="1.27034">
        <ele>112.5</ele>
        <time>2025-09-18T14:18:41Z</time>
      </trkpt>
      <trkpt lat="47.97849" lon="1.27229">
        <ele>111.1</ele>
        <time>2025-09-18T14:18:41Z</time>
      </trkpt>
      <trkpt lat="47.97851" lon="1.27249">
        <ele>110.1</ele>
        <time>2025-09-18T14:18:41Z</time>
      </trkpt>
      <trkpt lat="47.97858" lon="1.2733">
        <ele>108</ele>
        <time>2025-09-18T14:18:41Z</time>
      </trkpt>
      <trkpt lat="47.97858" lon="1.27349">
        <ele>107.5</ele>
        <time>2025-09-18T14:18:41Z</time>
      </trkpt>
      <trkpt lat="47.97881" lon="1.27488">
        <ele>106.4</ele>
        <time>2025-09-18T14:18:41Z</time>
      </trkpt>
      <trkpt lat="47.97886" lon="1.27509">
        <ele>107.5</ele>
        <time>2025-09-18T14:18:41Z</time>
      </trkpt>
      <trkpt lat="47.97906" lon="1.27628">
        <ele>114.8</ele>
        <time>2025-09-18T14:18:41Z</time>
      </trkpt>
      <trkpt lat="47.97906" lon="1.27683">
        <ele>115.8</ele>
        <time>2025-09-18T14:18:41Z</time>
      </trkpt>
      <trkpt lat="47.97928" lon="1.27807">
        <ele>118</ele>
        <time>2025-09-18T14:18:41Z</time>
      </trkpt>
      <trkpt lat="47.9793" lon="1.27825">
        <ele>118.7</ele>
        <time>2025-09-18T14:18:41Z</time>
      </trkpt>
      <trkpt lat="47.97926" lon="1.27918">
        <ele>118.7</ele>
        <time>2025-09-18T14:18:41Z</time>
      </trkpt>
      <trkpt lat="47.97919" lon="1.27955">
        <ele>119</ele>
        <time>2025-09-18T14:18:41Z</time>
      </trkpt>
      <trkpt lat="47.97919" lon="1.28073">
        <ele>120.6</ele>
        <time>2025-09-18T14:18:41Z</time>
      </trkpt>
      <trkpt lat="47.97936" lon="1.28091">
        <ele>120.3</ele>
        <time>2025-09-18T14:18:41Z</time>
      </trkpt>
      <trkpt lat="47.97949" lon="1.28099">
        <ele>119.9</ele>
        <time>2025-09-18T14:18:41Z</time>
      </trkpt>
      <trkpt lat="47.97973" lon="1.28116">
        <ele>120</ele>
        <time>2025-09-18T14:18:41Z</time>
      </trkpt>
      <trkpt lat="47.97985" lon="1.28133">
        <ele>119.5</ele>
        <time>2025-09-18T14:18:41Z</time>
      </trkpt>
      <trkpt lat="47.9801" lon="1.2815">
        <ele>118.4</ele>
        <time>2025-09-18T14:18:41Z</time>
      </trkpt>
      <trkpt lat="47.98042" lon="1.28178">
        <ele>117.5</ele>
        <time>2025-09-18T14:18:41Z</time>
      </trkpt>
      <trkpt lat="47.98048" lon="1.28205">
        <ele>116.9</ele>
        <time>2025-09-18T14:18:41Z</time>
      </trkpt>
      <trkpt lat="47.98055" lon="1.28223">
        <ele>116</ele>
        <time>2025-09-18T14:18:41Z</time>
      </trkpt>
      <trkpt lat="47.98063" lon="1.28244">
        <ele>115.5</ele>
        <time>2025-09-18T14:18:41Z</time>
      </trkpt>
      <trkpt lat="47.98064" lon="1.28282">
        <ele>115.6</ele>
        <time>2025-09-18T14:18:41Z</time>
      </trkpt>
      <trkpt lat="47.98056" lon="1.283">
        <ele>115.2</ele>
        <time>2025-09-18T14:18:41Z</time>
      </trkpt>
      <trkpt lat="47.9805" lon="1.28318">
        <ele>115.1</ele>
        <time>2025-09-18T14:18:41Z</time>
      </trkpt>
      <trkpt lat="47.98014" lon="1.28366">
        <ele>114.9</ele>
        <time>2025-09-18T14:18:41Z</time>
      </trkpt>
      <trkpt lat="47.98002" lon="1.28373">
        <ele>115</ele>
        <time>2025-09-18T14:18:41Z</time>
      </trkpt>
      <trkpt lat="47.97953" lon="1.2841">
        <ele>115.8</ele>
        <time>2025-09-18T14:18:41Z</time>
      </trkpt>
      <trkpt lat="47.97928" lon="1.28438">
        <ele>116.6</ele>
        <time>2025-09-18T14:18:41Z</time>
      </trkpt>
      <trkpt lat="47.97891" lon="1.28515">
        <ele>117.9</ele>
        <time>2025-09-18T14:18:41Z</time>
      </trkpt>
      <trkpt lat="47.97844" lon="1.28586">
        <ele>118</ele>
        <time>2025-09-18T14:18:41Z</time>
      </trkpt>
      <trkpt lat="47.97833" lon="1.28612">
        <ele>118</ele>
        <time>2025-09-18T14:18:41Z</time>
      </trkpt>
      <trkpt lat="47.97823" lon="1.28631">
        <ele>118.4</ele>
        <time>2025-09-18T14:18:41Z</time>
      </trkpt>
      <trkpt lat="47.97797" lon="1.28685">
        <ele>118.3</ele>
        <time>2025-09-18T14:18:41Z</time>
      </trkpt>
      <trkpt lat="47.97719" lon="1.28799">
        <ele>119.1</ele>
        <time>2025-09-18T14:18:41Z</time>
      </trkpt>
      <trkpt lat="47.97719" lon="1.28822">
        <ele>119.1</ele>
        <time>2025-09-18T14:18:41Z</time>
      </trkpt>
      <trkpt lat="47.97716" lon="1.2884">
        <ele>119.1</ele>
        <time>2025-09-18T14:18:41Z</time>
      </trkpt>
      <trkpt lat="47.97683" lon="1.28958">
        <ele>119.1</ele>
        <time>2025-09-18T14:18:41Z</time>
      </trkpt>
      <trkpt lat="47.97694" lon="1.28975">
        <ele>118.1</ele>
        <time>2025-09-18T14:18:41Z</time>
      </trkpt>
      <trkpt lat="47.97706" lon="1.28987">
        <ele>117.6</ele>
        <time>2025-09-18T14:18:41Z</time>
      </trkpt>
      <trkpt lat="47.97768" lon="1.29016">
        <ele>113.7</ele>
        <time>2025-09-18T14:18:41Z</time>
      </trkpt>
      <trkpt lat="47.97783" lon="1.29019">
        <ele>112.6</ele>
        <time>2025-09-18T14:18:41Z</time>
      </trkpt>
      <trkpt lat="47.97796" lon="1.29019">
        <ele>111.7</ele>
        <time>2025-09-18T14:18:41Z</time>
      </trkpt>
      <trkpt lat="47.9782" lon="1.29041">
        <ele>110</ele>
        <time>2025-09-18T14:18:41Z</time>
      </trkpt>
      <trkpt lat="47.97835" lon="1.29061">
        <ele>109.1</ele>
        <time>2025-09-18T14:18:41Z</time>
      </trkpt>
      <trkpt lat="47.9784" lon="1.29079">
        <ele>109.2</ele>
        <time>2025-09-18T14:18:41Z</time>
      </trkpt>
      <trkpt lat="47.97854" lon="1.29134">
        <ele>108.6</ele>
        <time>2025-09-18T14:18:41Z</time>
      </trkpt>
      <trkpt lat="47.97854" lon="1.29152">
        <ele>109.1</ele>
        <time>2025-09-18T14:18:41Z</time>
      </trkpt>
      <trkpt lat="47.97862" lon="1.29175">
        <ele>108.8</ele>
        <time>2025-09-18T14:18:41Z</time>
      </trkpt>
      <trkpt lat="47.97867" lon="1.29193">
        <ele>107.9</ele>
        <time>2025-09-18T14:18:41Z</time>
      </trkpt>
      <trkpt lat="47.97876" lon="1.29249">
        <ele>107.8</ele>
        <time>2025-09-18T14:18:41Z</time>
      </trkpt>
      <trkpt lat="47.97888" lon="1.29263">
        <ele>106.1</ele>
        <time>2025-09-18T14:18:41Z</time>
      </trkpt>
      <trkpt lat="47.97897" lon="1.29303">
        <ele>105.3</ele>
        <time>2025-09-18T14:18:41Z</time>
      </trkpt>
      <trkpt lat="47.979" lon="1.29322">
        <ele>104.9</ele>
        <time>2025-09-18T14:18:41Z</time>
      </trkpt>
      <trkpt lat="47.97909" lon="1.2936">
        <ele>102.5</ele>
        <time>2025-09-18T14:18:41Z</time>
      </trkpt>
      <trkpt lat="47.9791" lon="1.29399">
        <ele>103.1</ele>
        <time>2025-09-18T14:18:41Z</time>
      </trkpt>
      <trkpt lat="47.97916" lon="1.29418">
        <ele>102.2</ele>
        <time>2025-09-18T14:18:41Z</time>
      </trkpt>
      <trkpt lat="47.97929" lon="1.29562">
        <ele>100.8</ele>
        <time>2025-09-18T14:18:41Z</time>
      </trkpt>
      <trkpt lat="47.97931" lon="1.29563">
        <ele>100.8</ele>
        <time>2025-09-18T14:18:41Z</time>
      </trkpt>
      <trkpt lat="47.97931" lon="1.29564">
        <ele>100.8</ele>
        <time>2025-09-18T14:18:41Z</time>
      </trkpt>
      <trkpt lat="47.97938" lon="1.29582">
        <ele>101.2</ele>
        <time>2025-09-18T14:18:41Z</time>
      </trkpt>
      <trkpt lat="47.97936" lon="1.29611">
        <ele>101.3</ele>
        <time>2025-09-18T14:18:41Z</time>
      </trkpt>
      <trkpt lat="47.97912" lon="1.29606">
        <ele>102.1</ele>
        <time>2025-09-18T14:18:41Z</time>
      </trkpt>
      <trkpt lat="47.97879" lon="1.29602">
        <ele>103.4</ele>
        <time>2025-09-18T14:18:41Z</time>
      </trkpt>
      <trkpt lat="47.97855" lon="1.296">
        <ele>104.9</ele>
        <time>2025-09-18T14:18:41Z</time>
      </trkpt>
      <trkpt lat="47.97769" lon="1.29591">
        <ele>108.1</ele>
        <time>2025-09-18T14:18:41Z</time>
      </trkpt>
      <trkpt lat="47.97727" lon="1.296">
        <ele>109.8</ele>
        <time>2025-09-18T14:18:41Z</time>
      </trkpt>
      <trkpt lat="47.97703" lon="1.2958">
        <ele>110.7</ele>
        <time>2025-09-18T14:18:41Z</time>
      </trkpt>
      <trkpt lat="47.97621" lon="1.29542">
        <ele>114.5</ele>
        <time>2025-09-18T14:18:41Z</time>
      </trkpt>
      <trkpt lat="47.97596" lon="1.29531">
        <ele>115.3</ele>
        <time>2025-09-18T14:18:41Z</time>
      </trkpt>
      <trkpt lat="47.97537" lon="1.29503">
        <ele>117.1</ele>
        <time>2025-09-18T14:18:41Z</time>
      </trkpt>
      <trkpt lat="47.97513" lon="1.29497">
        <ele>117.7</ele>
        <time>2025-09-18T14:18:41Z</time>
      </trkpt>
      <trkpt lat="47.9742" lon="1.2948">
        <ele>120.2</ele>
        <time>2025-09-18T14:18:41Z</time>
      </trkpt>
      <trkpt lat="47.97395" lon="1.29484">
        <ele>121.2</ele>
        <time>2025-09-18T14:18:41Z</time>
      </trkpt>
      <trkpt lat="47.97346" lon="1.2948">
        <ele>121.8</ele>
        <time>2025-09-18T14:18:41Z</time>
      </trkpt>
      <trkpt lat="47.97322" lon="1.29467">
        <ele>122.3</ele>
        <time>2025-09-18T14:18:41Z</time>
      </trkpt>
      <trkpt lat="47.9721" lon="1.29428">
        <ele>124.4</ele>
        <time>2025-09-18T14:18:41Z</time>
      </trkpt>
      <trkpt lat="47.97216" lon="1.29465">
        <ele>124.2</ele>
        <time>2025-09-18T14:18:41Z</time>
      </trkpt>
      <trkpt lat="47.9721" lon="1.29503">
        <ele>125.4</ele>
        <time>2025-09-18T14:18:41Z</time>
      </trkpt>
      <trkpt lat="47.97197" lon="1.2954">
        <ele>126</ele>
        <time>2025-09-18T14:18:41Z</time>
      </trkpt>
      <trkpt lat="47.97197" lon="1.29576">
        <ele>126</ele>
        <time>2025-09-18T14:18:41Z</time>
      </trkpt>
      <trkpt lat="47.97175" lon="1.29653">
        <ele>127</ele>
        <time>2025-09-18T14:18:41Z</time>
      </trkpt>
      <trkpt lat="47.97147" lon="1.29795">
        <ele>128</ele>
        <time>2025-09-18T14:18:41Z</time>
      </trkpt>
      <trkpt lat="47.97152" lon="1.29832">
        <ele>128.5</ele>
        <time>2025-09-18T14:18:41Z</time>
      </trkpt>
      <trkpt lat="47.97161" lon="1.2987">
        <ele>129</ele>
        <time>2025-09-18T14:18:41Z</time>
      </trkpt>
      <trkpt lat="47.97168" lon="1.30018">
        <ele>129</ele>
        <time>2025-09-18T14:18:41Z</time>
      </trkpt>
      <trkpt lat="47.97181" lon="1.30068">
        <ele>128.8</ele>
        <time>2025-09-18T14:18:41Z</time>
      </trkpt>
      <trkpt lat="47.97188" lon="1.30106">
        <ele>128</ele>
        <time>2025-09-18T14:18:41Z</time>
      </trkpt>
      <trkpt lat="47.97191" lon="1.30158">
        <ele>128</ele>
        <time>2025-09-18T14:18:41Z</time>
      </trkpt>
      <trkpt lat="47.97188" lon="1.30196">
        <ele>128</ele>
        <time>2025-09-18T14:18:41Z</time>
      </trkpt>
      <trkpt lat="47.97162" lon="1.3045">
        <ele>130</ele>
        <time>2025-09-18T14:18:41Z</time>
      </trkpt>
      <trkpt lat="47.97149" lon="1.30486">
        <ele>130</ele>
        <time>2025-09-18T14:18:41Z</time>
      </trkpt>
      <trkpt lat="47.97142" lon="1.30522">
        <ele>130</ele>
        <time>2025-09-18T14:18:41Z</time>
      </trkpt>
      <trkpt lat="47.97142" lon="1.30561">
        <ele>130</ele>
        <time>2025-09-18T14:18:41Z</time>
      </trkpt>
      <trkpt lat="47.97144" lon="1.30598">
        <ele>129.9</ele>
        <time>2025-09-18T14:18:41Z</time>
      </trkpt>
      <trkpt lat="47.97152" lon="1.30881">
        <ele>129</ele>
        <time>2025-09-18T14:18:41Z</time>
      </trkpt>
      <trkpt lat="47.97154" lon="1.30917">
        <ele>129</ele>
        <time>2025-09-18T14:18:41Z</time>
      </trkpt>
      <trkpt lat="47.97158" lon="1.31029">
        <ele>127.7</ele>
        <time>2025-09-18T14:18:41Z</time>
      </trkpt>
      <trkpt lat="47.97151" lon="1.31067">
        <ele>126.8</ele>
        <time>2025-09-18T14:18:41Z</time>
      </trkpt>
      <trkpt lat="47.97147" lon="1.31106">
        <ele>126</ele>
        <time>2025-09-18T14:18:41Z</time>
      </trkpt>
      <trkpt lat="47.97126" lon="1.31216">
        <ele>122.2</ele>
        <time>2025-09-18T14:18:41Z</time>
      </trkpt>
      <trkpt lat="47.97151" lon="1.31218">
        <ele>122.2</ele>
        <time>2025-09-18T14:18:41Z</time>
      </trkpt>
      <trkpt lat="47.97234" lon="1.3122">
        <ele>122.3</ele>
        <time>2025-09-18T14:18:41Z</time>
      </trkpt>
      <trkpt lat="47.97259" lon="1.31222">
        <ele>120.7</ele>
        <time>2025-09-18T14:18:41Z</time>
      </trkpt>
      <trkpt lat="47.97283" lon="1.31222">
        <ele>119.9</ele>
        <time>2025-09-18T14:18:41Z</time>
      </trkpt>
      <trkpt lat="47.97309" lon="1.31196">
        <ele>122.6</ele>
        <time>2025-09-18T14:18:41Z</time>
      </trkpt>
      <trkpt lat="47.97339" lon="1.31186">
        <ele>122.5</ele>
        <time>2025-09-18T14:18:41Z</time>
      </trkpt>
      <trkpt lat="47.97364" lon="1.31181">
        <ele>122.1</ele>
        <time>2025-09-18T14:18:41Z</time>
      </trkpt>
      <trkpt lat="47.97483" lon="1.31113">
        <ele>122.3</ele>
        <time>2025-09-18T14:18:41Z</time>
      </trkpt>
      <trkpt lat="47.97507" lon="1.31104">
        <ele>122.3</ele>
        <time>2025-09-18T14:18:41Z</time>
      </trkpt>
      <trkpt lat="47.97588" lon="1.31098">
        <ele>120.2</ele>
        <time>2025-09-18T14:18:41Z</time>
      </trkpt>
      <trkpt lat="47.97612" lon="1.31078">
        <ele>120.9</ele>
        <time>2025-09-18T14:18:41Z</time>
      </trkpt>
      <trkpt lat="47.97668" lon="1.31048">
        <ele>120.2</ele>
        <time>2025-09-18T14:18:41Z</time>
      </trkpt>
      <trkpt lat="47.97692" lon="1.31044">
        <ele>119.9</ele>
        <time>2025-09-18T14:18:41Z</time>
      </trkpt>
      <trkpt lat="47.97763" lon="1.31031">
        <ele>118</ele>
        <time>2025-09-18T14:18:41Z</time>
      </trkpt>
      <trkpt lat="47.97787" lon="1.31022">
        <ele>117.8</ele>
        <time>2025-09-18T14:18:41Z</time>
      </trkpt>
      <trkpt lat="47.97863" lon="1.31007">
        <ele>116.8</ele>
        <time>2025-09-18T14:18:41Z</time>
      </trkpt>
      <trkpt lat="47.97888" lon="1.31007">
        <ele>115.7</ele>
        <time>2025-09-18T14:18:41Z</time>
      </trkpt>
      <trkpt lat="47.9796" lon="1.30992">
        <ele>112.1</ele>
        <time>2025-09-18T14:18:41Z</time>
      </trkpt>
      <trkpt lat="47.9799" lon="1.30952">
        <ele>111.8</ele>
        <time>2025-09-18T14:18:41Z</time>
      </trkpt>
      <trkpt lat="47.98027" lon="1.30969">
        <ele>109</ele>
        <time>2025-09-18T14:18:41Z</time>
      </trkpt>
      <trkpt lat="47.98066" lon="1.31001">
        <ele>104.6</ele>
        <time>2025-09-18T14:18:41Z</time>
      </trkpt>
      <trkpt lat="47.98112" lon="1.31001">
        <ele>103</ele>
        <time>2025-09-18T14:18:41Z</time>
      </trkpt>
      <trkpt lat="47.98136" lon="1.30999">
        <ele>103.1</ele>
        <time>2025-09-18T14:18:41Z</time>
      </trkpt>
      <trkpt lat="47.98182" lon="1.30986">
        <ele>104</ele>
        <time>2025-09-18T14:18:41Z</time>
      </trkpt>
      <trkpt lat="47.98208" lon="1.30977">
        <ele>105.4</ele>
        <time>2025-09-18T14:18:41Z</time>
      </trkpt>
      <trkpt lat="47.98234" lon="1.30958">
        <ele>107</ele>
        <time>2025-09-18T14:18:41Z</time>
      </trkpt>
      <trkpt lat="47.98258" lon="1.30956">
        <ele>107.2</ele>
        <time>2025-09-18T14:18:41Z</time>
      </trkpt>
      <trkpt lat="47.98291" lon="1.30939">
        <ele>107.2</ele>
        <time>2025-09-18T14:18:41Z</time>
      </trkpt>
      <trkpt lat="47.98316" lon="1.30926">
        <ele>106.3</ele>
        <time>2025-09-18T14:18:41Z</time>
      </trkpt>
      <trkpt lat="47.98401" lon="1.30859">
        <ele>103.6</ele>
        <time>2025-09-18T14:18:41Z</time>
      </trkpt>
      <trkpt lat="47.98438" lon="1.30819">
        <ele>101.9</ele>
        <time>2025-09-18T14:18:41Z</time>
      </trkpt>
      <trkpt lat="47.98406" lon="1.30752">
        <ele>104.4</ele>
        <time>2025-09-18T14:18:41Z</time>
      </trkpt>
      <trkpt lat="47.98382" lon="1.30726">
        <ele>105.3</ele>
        <time>2025-09-18T14:18:41Z</time>
      </trkpt>
      <trkpt lat="47.98356" lon="1.30698">
        <ele>106.2</ele>
        <time>2025-09-18T14:18:41Z</time>
      </trkpt>
      <trkpt lat="47.9835" lon="1.30677">
        <ele>106.4</ele>
        <time>2025-09-18T14:18:41Z</time>
      </trkpt>
      <trkpt lat="47.98375" lon="1.30666">
        <ele>105.5</ele>
        <time>2025-09-18T14:18:41Z</time>
      </trkpt>
      <trkpt lat="47.98415" lon="1.30621">
        <ele>103.1</ele>
        <time>2025-09-18T14:18:41Z</time>
      </trkpt>
      <trkpt lat="47.98439" lon="1.30602">
        <ele>101.3</ele>
        <time>2025-09-18T14:18:41Z</time>
      </trkpt>
      <trkpt lat="47.98495" lon="1.30531">
        <ele>100</ele>
        <time>2025-09-18T14:18:41Z</time>
      </trkpt>
      <trkpt lat="47.9852" lon="1.30512">
        <ele>100</ele>
        <time>2025-09-18T14:18:41Z</time>
      </trkpt>
      <trkpt lat="47.98559" lon="1.30475">
        <ele>99.2</ele>
        <time>2025-09-18T14:18:41Z</time>
      </trkpt>
      <trkpt lat="47.98583" lon="1.3046">
        <ele>100</ele>
        <time>2025-09-18T14:18:41Z</time>
      </trkpt>
      <trkpt lat="47.98616" lon="1.30428">
        <ele>100.2</ele>
        <time>2025-09-18T14:18:41Z</time>
      </trkpt>
      <trkpt lat="47.9864" lon="1.30413">
        <ele>101.2</ele>
        <time>2025-09-18T14:18:41Z</time>
      </trkpt>
      <trkpt lat="47.98665" lon="1.30404">
        <ele>102.9</ele>
        <time>2025-09-18T14:18:41Z</time>
      </trkpt>
      <trkpt lat="47.98691" lon="1.30394">
        <ele>104.7</ele>
        <time>2025-09-18T14:18:41Z</time>
      </trkpt>
      <trkpt lat="47.98696" lon="1.3043">
        <ele>104.8</ele>
        <time>2025-09-18T14:18:41Z</time>
      </trkpt>
      <trkpt lat="47.98705" lon="1.30471">
        <ele>105.2</ele>
        <time>2025-09-18T14:18:41Z</time>
      </trkpt>
      <trkpt lat="47.98717" lon="1.30537">
        <ele>104.1</ele>
        <time>2025-09-18T14:18:41Z</time>
      </trkpt>
      <trkpt lat="47.98715" lon="1.30574">
        <ele>104</ele>
        <time>2025-09-18T14:18:41Z</time>
      </trkpt>
      <trkpt lat="47.98718" lon="1.30658">
        <ele>103.1</ele>
        <time>2025-09-18T14:18:41Z</time>
      </trkpt>
      <trkpt lat="47.98724" lon="1.30694">
        <ele>103.1</ele>
        <time>2025-09-18T14:18:41Z</time>
      </trkpt>
      <trkpt lat="47.98732" lon="1.30754">
        <ele>102.4</ele>
        <time>2025-09-18T14:18:41Z</time>
      </trkpt>
      <trkpt lat="47.98709" lon="1.30816">
        <ele>101.3</ele>
        <time>2025-09-18T14:18:41Z</time>
      </trkpt>
      <trkpt lat="47.98688" lon="1.30853">
        <ele>101</ele>
        <time>2025-09-18T14:18:41Z</time>
      </trkpt>
      <trkpt lat="47.98648" lon="1.30885">
        <ele>101</ele>
        <time>2025-09-18T14:18:41Z</time>
      </trkpt>
      <trkpt lat="47.98623" lon="1.30904">
        <ele>101.8</ele>
        <time>2025-09-18T14:18:41Z</time>
      </trkpt>
      <trkpt lat="47.98593" lon="1.30941">
        <ele>103.1</ele>
        <time>2025-09-18T14:18:41Z</time>
      </trkpt>
      <trkpt lat="47.98567" lon="1.30973">
        <ele>103.9</ele>
        <time>2025-09-18T14:18:41Z</time>
      </trkpt>
      <trkpt lat="47.98527" lon="1.31022">
        <ele>101.7</ele>
        <time>2025-09-18T14:18:41Z</time>
      </trkpt>
      <trkpt lat="47.98481" lon="1.31076">
        <ele>102.1</ele>
        <time>2025-09-18T14:18:41Z</time>
      </trkpt>
      <trkpt lat="47.98457" lon="1.31102">
        <ele>102.4</ele>
        <time>2025-09-18T14:18:41Z</time>
      </trkpt>
      <trkpt lat="47.98411" lon="1.31136">
        <ele>101.7</ele>
        <time>2025-09-18T14:18:41Z</time>
      </trkpt>
      <trkpt lat="47.98372" lon="1.31188">
        <ele>101.3</ele>
        <time>2025-09-18T14:18:41Z</time>
      </trkpt>
    </trkseg>
  </trk>
</gpx>